,,PA_Meas_PMT16A,,PR_Meas_QMR101_102,,RH_Meas_QMH101,,SR_Meas_QMS101,,TA_Meas_QMH101,,GenWind,,GenWind,
time,status,PA,status,PR,status,RH,status,SR,status,TA,status,DirAvg,status,SpdAvg,
2014-04-09, 00:00:04,VALID,919.176,VALID,0,VALID,95.59,VALID,0,VALID,19.9953,VALID,11,VALID,0.811719,
2014-04-09, 00:01:04,VALID,919.161,VALID,0,VALID,95.5595,VALID,0,VALID,19.9953,VALID,11,VALID,0.79375,
2014-04-09, 00:02:04,VALID,919.151,VALID,0,VALID,95.5671,VALID,0,VALID,20.0148,VALID,11,VALID,0.90625,
2014-04-09, 00:03:04,VALID,919.122,VALID,0,VALID,95.5519,VALID,0,VALID,19.9953,VALID,11,VALID,0.516016,
2014-04-09, 00:04:04,VALID,919.112,VALID,0,VALID,95.529,VALID,0.107441,VALID,19.9953,VALID,11,VALID,0.404687,
2014-04-09, 00:05:04,VALID,919.122,VALID,0,VALID,95.5214,VALID,0,VALID,19.9953,VALID,11,VALID,0.793359,
2014-04-09, 00:06:04,VALID,919.102,VALID,0,VALID,95.5214,VALID,0,VALID,19.9953,VALID,11,VALID,0.507813,
2014-04-09, 00:07:04,VALID,919.069,VALID,0,VALID,95.5138,VALID,0,VALID,19.9953,VALID,11,VALID,0.723437,
2014-04-09, 00:08:04,VALID,919.064,VALID,0,VALID,95.5214,VALID,0,VALID,20.0163,VALID,11,VALID,0.394141,
2014-04-09, 00:09:04,VALID,919.08,VALID,0,VALID,95.529,VALID,0,VALID,20.0163,VALID,11,VALID,0.855078,
2014-04-09, 00:10:04,VALID,919.084,VALID,0,VALID,95.5062,VALID,0,VALID,20.0148,VALID,11,VALID,0.754297,
2014-04-09, 00:11:04,VALID,919.12,VALID,0,VALID,95.529,VALID,0,VALID,20.0343,VALID,11,VALID,0.613281,
2014-04-09, 00:12:04,VALID,919.141,VALID,0,VALID,95.5138,VALID,0,VALID,20.0538,VALID,11,VALID,0.846484,
2014-04-09, 00:13:04,VALID,919.155,VALID,0,VALID,95.5214,VALID,0,VALID,20.0733,VALID,11,VALID,0.414844,
2014-04-09, 00:14:04,VALID,919.189,VALID,0,VALID,95.5062,VALID,0,VALID,20.0733,VALID,11,VALID,0.696094,
2014-04-09, 00:15:04,VALID,919.208,VALID,0,VALID,95.4985,VALID,0,VALID,20.0733,VALID,11,VALID,0.944531,
2014-04-09, 00:16:04,VALID,919.232,VALID,0,VALID,95.4833,VALID,0,VALID,20.0733,VALID,12,VALID,0.90625,
2014-04-09, 00:17:04,VALID,919.245,VALID,0,VALID,95.4909,VALID,0,VALID,20.0733,VALID,12,VALID,1.01406,
2014-04-09, 00:18:04,VALID,919.263,VALID,0,VALID,95.468,VALID,0,VALID,20.0733,VALID,145,VALID,1.06914,
2014-04-09, 00:19:04,VALID,919.226,VALID,0,VALID,95.4757,VALID,0,VALID,20.0733,VALID,159,VALID,0.973437,
2014-04-09, 00:20:04,VALID,919.254,VALID,0,VALID,95.468,VALID,0,VALID,20.0733,VALID,153,VALID,1.34492,
2014-04-09, 00:21:04,VALID,919.235,VALID,0,VALID,95.4757,VALID,0,VALID,20.0733,VALID,144,VALID,1.02344,
2014-04-09, 00:22:04,VALID,919.19,VALID,0,VALID,95.4604,VALID,0,VALID,20.0538,VALID,145,VALID,0.991797,
2014-04-09, 00:23:04,VALID,919.223,VALID,0,VALID,95.4528,VALID,0,VALID,20.0538,VALID,145,VALID,0.954687,
2014-04-09, 00:24:04,VALID,919.204,VALID,0,VALID,95.4452,VALID,0,VALID,20.0343,VALID,124,VALID,0.670703,
2014-04-09, 00:25:04,VALID,919.226,VALID,0,VALID,95.4223,VALID,0,VALID,20.0553,VALID,125,VALID,0.626562,
2014-04-09, 00:26:04,VALID,919.212,VALID,0,VALID,95.4147,VALID,0,VALID,20.0553,VALID,124,VALID,0.615625,
2014-04-09, 00:27:04,VALID,919.195,VALID,0,VALID,95.3613,VALID,0,VALID,20.0553,VALID,128,VALID,0.531641,
2014-04-09, 00:28:04,VALID,919.179,VALID,0,VALID,95.3308,VALID,0,VALID,20.0358,VALID,128,VALID,0.673437,
2014-04-09, 00:29:04,VALID,919.155,VALID,0,VALID,95.3079,VALID,0,VALID,20.0148,VALID,153,VALID,0.953906,
2014-04-09, 00:30:04,VALID,919.16,VALID,0,VALID,95.2775,VALID,0,VALID,20.0343,VALID,159,VALID,0.989844,
2014-04-09, 00:31:04,VALID,919.128,VALID,0,VALID,95.2317,VALID,0,VALID,20.0358,VALID,159,VALID,0.925391,
2014-04-09, 00:32:04,VALID,919.101,VALID,0,VALID,95.2088,VALID,0,VALID,20.0343,VALID,159,VALID,1.04844,
2014-04-09, 00:33:04,VALID,919.125,VALID,0,VALID,95.1402,VALID,0,VALID,20.0148,VALID,159,VALID,0.775,
2014-04-09, 00:34:04,VALID,919.086,VALID,0,VALID,95.1555,VALID,0,VALID,20.0343,VALID,161,VALID,0.660156,
2014-04-09, 00:35:04,VALID,919.104,VALID,0,VALID,95.1402,VALID,0,VALID,20.0358,VALID,160,VALID,0.630078,
2014-04-09, 00:36:04,VALID,919.155,VALID,0,VALID,95.1402,VALID,0,VALID,20.0148,VALID,160,VALID,0.502734,
2014-04-09, 00:37:04,VALID,919.104,VALID,0,VALID,95.125,VALID,0,VALID,20.0148,VALID,160,VALID,0.451953,
2014-04-09, 00:38:04,VALID,919.118,VALID,0,VALID,95.1326,VALID,0,VALID,20.0148,VALID,160,VALID,0.401563,
2014-04-09, 00:39:04,VALID,919.081,VALID,0,VALID,95.1174,VALID,0,VALID,20.0148,VALID,160,VALID,0.0304688,
2014-04-09, 00:40:04,VALID,919.068,VALID,0,VALID,95.1097,VALID,0,VALID,19.9968,VALID,160,VALID,0.501562,
2014-04-09, 00:41:04,VALID,919.043,VALID,0,VALID,95.0869,VALID,0,VALID,19.9758,VALID,160,VALID,0.610547,
2014-04-09, 00:42:04,VALID,918.979,VALID,0,VALID,95.0792,VALID,0,VALID,19.9563,VALID,160,VALID,0.723047,
2014-04-09, 00:43:04,VALID,918.972,VALID,0,VALID,95.1174,VALID,0,VALID,19.9773,VALID,160,VALID,0.600781,
2014-04-09, 00:44:04,VALID,918.956,VALID,0,VALID,95.1174,VALID,0,VALID,19.9368,VALID,160,VALID,0.773828,
2014-04-09, 00:45:04,VALID,918.928,VALID,0,VALID,95.1555,VALID,0,VALID,19.9383,VALID,160,VALID,0.639844,
2014-04-09, 00:46:04,VALID,918.906,VALID,0,VALID,95.1555,VALID,0,VALID,19.8978,VALID,160,VALID,0.698438,
2014-04-09, 00:47:04,VALID,918.929,VALID,0,VALID,95.2012,VALID,0,VALID,19.9383,VALID,160,VALID,0.758203,
2014-04-09, 00:48:04,VALID,918.889,VALID,0,VALID,95.2317,VALID,0.107441,VALID,19.9158,VALID,160,VALID,0.762109,
2014-04-09, 00:49:04,VALID,918.91,VALID,0,VALID,95.2546,VALID,0.107441,VALID,19.9173,VALID,160,VALID,0.646484,
2014-04-09, 00:50:04,VALID,918.888,VALID,0,VALID,95.2698,VALID,0.107441,VALID,19.9173,VALID,158,VALID,0.778125,
2014-04-09, 00:51:04,VALID,918.876,VALID,0,VALID,95.2775,VALID,0.107441,VALID,19.8768,VALID,158,VALID,0.421484,
2014-04-09, 00:52:04,VALID,918.83,VALID,0,VALID,95.2851,VALID,0.107441,VALID,19.8978,VALID,157,VALID,0.495703,
2014-04-09, 00:53:04,VALID,918.818,VALID,0,VALID,95.2698,VALID,0,VALID,19.8378,VALID,154,VALID,0.577734,
2014-04-09, 00:54:04,VALID,918.787,VALID,0,VALID,95.2698,VALID,0.107441,VALID,19.8378,VALID,147,VALID,0.718359,
2014-04-09, 00:55:04,VALID,918.766,VALID,0,VALID,95.3156,VALID,0.107441,VALID,19.8588,VALID,137,VALID,0.623047,
2014-04-09, 00:56:04,VALID,918.736,VALID,0,VALID,95.3766,VALID,0.107441,VALID,19.8783,VALID,137,VALID,0.672656,
2014-04-09, 00:57:04,VALID,918.738,VALID,0,VALID,95.3689,VALID,0.107441,VALID,19.8588,VALID,137,VALID,0.663672,
2014-04-09, 00:58:04,VALID,918.71,VALID,0,VALID,95.3918,VALID,0,VALID,19.8588,VALID,137,VALID,0.729297,
2014-04-09, 00:59:04,VALID,918.704,VALID,0,VALID,95.4071,VALID,0.107441,VALID,19.8198,VALID,137,VALID,0.643359,
2014-04-09, 01:00:04,VALID,918.669,VALID,0,VALID,95.3613,VALID,0,VALID,19.7598,VALID,137,VALID,0.567578,
2014-04-09, 01:01:04,VALID,918.66,VALID,0,VALID,95.3461,VALID,0.107441,VALID,19.7613,VALID,137,VALID,0.751562,
2014-04-09, 01:02:04,VALID,918.64,VALID,0,VALID,95.3689,VALID,0.107441,VALID,19.7418,VALID,135,VALID,0.601563,
2014-04-09, 01:03:04,VALID,918.637,VALID,0,VALID,95.3842,VALID,0,VALID,19.7223,VALID,135,VALID,0.853516,
2014-04-09, 01:04:04,VALID,918.648,VALID,0,VALID,95.4071,VALID,0,VALID,19.7238,VALID,135,VALID,0.660156,
2014-04-09, 01:05:04,VALID,918.686,VALID,0,VALID,95.3842,VALID,0,VALID,19.6848,VALID,135,VALID,0.769141,
2014-04-09, 01:06:04,VALID,918.654,VALID,0,VALID,95.3994,VALID,0,VALID,19.6458,VALID,135,VALID,1.00781,
2014-04-09, 01:07:04,VALID,918.655,VALID,0,VALID,95.3766,VALID,0,VALID,19.5873,VALID,137,VALID,0.877734,
2014-04-09, 01:08:04,VALID,918.649,VALID,0,VALID,95.3842,VALID,0,VALID,19.5078,VALID,141,VALID,0.832422,
2014-04-09, 01:09:04,VALID,918.612,VALID,0,VALID,95.3766,VALID,0,VALID,19.4898,VALID,141,VALID,0.896484,
2014-04-09, 01:10:04,VALID,918.569,VALID,0,VALID,95.4375,VALID,0,VALID,19.5108,VALID,141,VALID,0.902734,
2014-04-09, 01:11:04,VALID,918.555,VALID,0,VALID,95.4909,VALID,0,VALID,19.4298,VALID,136,VALID,0.857422,
2014-04-09, 01:12:04,VALID,918.541,VALID,0,VALID,95.5443,VALID,0,VALID,19.4508,VALID,129,VALID,0.96875,
2014-04-09, 01:13:04,VALID,918.555,VALID,0,VALID,95.6053,VALID,0,VALID,19.4313,VALID,127,VALID,0.655859,
2014-04-09, 01:14:04,VALID,918.56,VALID,0,VALID,95.6129,VALID,0,VALID,19.4118,VALID,132,VALID,0.735156,
2014-04-09, 01:15:04,VALID,918.554,VALID,0,VALID,95.6357,VALID,0,VALID,19.3923,VALID,126,VALID,0.895312,
2014-04-09, 01:16:04,VALID,918.558,VALID,0,VALID,95.6891,VALID,0,VALID,19.3923,VALID,126,VALID,0.577734,
2014-04-09, 01:17:04,VALID,918.53,VALID,0,VALID,95.7349,VALID,0,VALID,19.3923,VALID,128,VALID,0.432422,
2014-04-09, 01:18:04,VALID,918.506,VALID,0,VALID,95.7806,VALID,0,VALID,19.3923,VALID,128,VALID,0.765234,
2014-04-09, 01:19:04,VALID,918.468,VALID,0,VALID,95.7958,VALID,0,VALID,19.3923,VALID,132,VALID,0.793359,
2014-04-09, 01:20:04,VALID,918.425,VALID,0,VALID,95.834,VALID,0,VALID,19.3908,VALID,133,VALID,0.992969,
2014-04-09, 01:21:04,VALID,918.428,VALID,0,VALID,95.8568,VALID,0.107441,VALID,19.3713,VALID,134,VALID,0.9625,
2014-04-09, 01:22:04,VALID,918.414,VALID,0,VALID,95.8721,VALID,0.107441,VALID,19.3518,VALID,125,VALID,0.767187,
2014-04-09, 01:23:04,VALID,918.444,VALID,0,VALID,95.9026,VALID,0.107441,VALID,19.3128,VALID,129,VALID,0.569141,
2014-04-09, 01:24:04,VALID,918.478,VALID,0,VALID,95.895,VALID,0.107441,VALID,19.3128,VALID,129,VALID,0.442969,
2014-04-09, 01:25:04,VALID,918.475,VALID,0,VALID,95.9178,VALID,0.107441,VALID,19.3128,VALID,129,VALID,0.637109,
2014-04-09, 01:26:04,VALID,918.427,VALID,0,VALID,95.9407,VALID,0.107441,VALID,19.3128,VALID,122,VALID,0.937891,
2014-04-09, 01:27:04,VALID,918.386,VALID,0,VALID,95.9559,VALID,0.107441,VALID,19.3323,VALID,122,VALID,0.814844,
2014-04-09, 01:28:04,VALID,918.378,VALID,0,VALID,96.0169,VALID,0,VALID,19.3128,VALID,122,VALID,1.09258,
2014-04-09, 01:29:04,VALID,918.358,VALID,0,VALID,96.0017,VALID,0.107441,VALID,19.2933,VALID,122,VALID,1.03516,
2014-04-09, 01:30:04,VALID,918.326,VALID,0,VALID,96.0322,VALID,0.107441,VALID,19.2723,VALID,122,VALID,0.876562,
2014-04-09, 01:31:04,VALID,918.285,VALID,0,VALID,96.0398,VALID,0.107441,VALID,19.3128,VALID,123,VALID,0.782031,
2014-04-09, 01:32:04,VALID,918.297,VALID,0,VALID,96.0779,VALID,0.107441,VALID,19.2348,VALID,123,VALID,0.530469,
2014-04-09, 01:33:04,VALID,918.318,VALID,0,VALID,96.0779,VALID,0.107441,VALID,19.2348,VALID,123,VALID,0.851953,
2014-04-09, 01:34:04,VALID,918.272,VALID,0,VALID,96.0779,VALID,0.107441,VALID,19.2153,VALID,123,VALID,0.798828,
2014-04-09, 01:35:04,VALID,918.275,VALID,0,VALID,96.0932,VALID,0,VALID,19.2153,VALID,123,VALID,0.841797,
2014-04-09, 01:36:04,VALID,918.251,VALID,0,VALID,96.0932,VALID,0,VALID,19.1958,VALID,112,VALID,0.925391,
2014-04-09, 01:37:04,VALID,918.22,VALID,0,VALID,96.116,VALID,0,VALID,19.1568,VALID,112,VALID,0.639063,
2014-04-09, 01:38:04,VALID,918.196,VALID,0,VALID,96.1084,VALID,0.107441,VALID,19.1178,VALID,112,VALID,0.780078,
2014-04-09, 01:39:04,VALID,918.18,VALID,0,VALID,96.1389,VALID,0,VALID,19.1373,VALID,112,VALID,0.932422,
2014-04-09, 01:40:04,VALID,918.159,VALID,0,VALID,96.1313,VALID,0.107441,VALID,19.0593,VALID,112,VALID,0.58125,
2014-04-09, 01:41:04,VALID,918.136,VALID,0,VALID,96.1618,VALID,0.107441,VALID,19.0398,VALID,112,VALID,0.522266,
2014-04-09, 01:42:04,VALID,918.114,VALID,0,VALID,96.1694,VALID,0,VALID,19.0398,VALID,112,VALID,0.668359,
2014-04-09, 01:43:04,VALID,918.097,VALID,0,VALID,96.1618,VALID,0.107441,VALID,19.0398,VALID,116,VALID,0.760547,
2014-04-09, 01:44:04,VALID,918.109,VALID,0,VALID,96.1846,VALID,0.107441,VALID,19.0203,VALID,116,VALID,0.638672,
2014-04-09, 01:45:04,VALID,918.086,VALID,0,VALID,96.1846,VALID,0,VALID,18.9799,VALID,125,VALID,0.839844,
2014-04-09, 01:46:04,VALID,918.101,VALID,0,VALID,96.1999,VALID,0.107441,VALID,18.9994,VALID,129,VALID,1.20352,
2014-04-09, 01:47:04,VALID,918.075,VALID,0,VALID,96.2151,VALID,0,VALID,19.0398,VALID,126,VALID,0.723047,
2014-04-09, 01:48:04,VALID,918.081,VALID,0,VALID,96.2151,VALID,0.107441,VALID,19.0788,VALID,133,VALID,0.957031,
2014-04-09, 01:49:04,VALID,918.075,VALID,0,VALID,96.238,VALID,0.107441,VALID,19.0593,VALID,133,VALID,0.647656,
2014-04-09, 01:50:04,VALID,918.068,VALID,0,VALID,96.2456,VALID,0,VALID,19.0203,VALID,133,VALID,0.581641,
2014-04-09, 01:51:04,VALID,918.075,VALID,0,VALID,96.2609,VALID,0.107441,VALID,18.9604,VALID,133,VALID,0.719531,
2014-04-09, 01:52:04,VALID,918.075,VALID,0,VALID,96.2609,VALID,0,VALID,19.0008,VALID,133,VALID,0.892578,
2014-04-09, 01:53:04,VALID,918.057,VALID,0,VALID,96.2609,VALID,0,VALID,19.0008,VALID,137,VALID,0.919531,
2014-04-09, 01:54:04,VALID,918.038,VALID,0,VALID,96.2914,VALID,0,VALID,19.0008,VALID,139,VALID,1.11016,
2014-04-09, 01:55:04,VALID,918.061,VALID,0,VALID,96.2837,VALID,0.107441,VALID,19.0203,VALID,144,VALID,1.08711,
2014-04-09, 01:56:04,VALID,918.089,VALID,0,VALID,96.2837,VALID,0,VALID,19.0398,VALID,145,VALID,0.930078,
2014-04-09, 01:57:04,VALID,918.082,VALID,0,VALID,96.3066,VALID,0.107441,VALID,19.0203,VALID,145,VALID,0.944531,
2014-04-09, 01:58:04,VALID,918.08,VALID,0,VALID,96.3142,VALID,0.107441,VALID,19.0203,VALID,145,VALID,0.93125,
2014-04-09, 01:59:04,VALID,918.1,VALID,0,VALID,96.299,VALID,0,VALID,19.0398,VALID,145,VALID,0.876562,
2014-04-09, 02:00:04,VALID,918.074,VALID,0,VALID,96.3295,VALID,0,VALID,19.0203,VALID,132,VALID,0.766406,
2014-04-09, 02:01:04,VALID,918.065,VALID,0,VALID,96.3219,VALID,0.107441,VALID,19.0008,VALID,129,VALID,0.907812,
2014-04-09, 02:02:04,VALID,918.043,VALID,0,VALID,96.3219,VALID,0.107441,VALID,18.9814,VALID,127,VALID,0.920703,
2014-04-09, 02:03:04,VALID,918.026,VALID,0,VALID,96.3371,VALID,0,VALID,19.0218,VALID,127,VALID,0.765625,
2014-04-09, 02:04:04,VALID,918.081,VALID,0,VALID,96.3371,VALID,0,VALID,19.0023,VALID,129,VALID,0.832031,
2014-04-09, 02:05:04,VALID,918.041,VALID,0,VALID,96.3524,VALID,0,VALID,19.0023,VALID,133,VALID,1.04414,
2014-04-09, 02:06:04,VALID,918.035,VALID,0,VALID,96.36,VALID,0,VALID,18.9828,VALID,130,VALID,0.998047,
2014-04-09, 02:07:04,VALID,917.995,VALID,0,VALID,96.3676,VALID,0,VALID,18.9633,VALID,110,VALID,1.0875,
2014-04-09, 02:08:04,VALID,917.977,VALID,0,VALID,96.3676,VALID,0,VALID,18.9243,VALID,108,VALID,1.11289,
2014-04-09, 02:09:04,VALID,917.997,VALID,0,VALID,96.3524,VALID,0,VALID,18.8853,VALID,113,VALID,1.12617,
2014-04-09, 02:10:04,VALID,917.93,VALID,0,VALID,96.36,VALID,0,VALID,18.8658,VALID,115,VALID,0.692187,
2014-04-09, 02:11:04,VALID,917.94,VALID,0,VALID,96.3676,VALID,0,VALID,18.8463,VALID,115,VALID,1.08125,
2014-04-09, 02:12:04,VALID,917.923,VALID,0,VALID,96.3524,VALID,0,VALID,18.8073,VALID,118,VALID,0.901172,
2014-04-09, 02:13:04,VALID,917.873,VALID,0,VALID,96.3371,VALID,0,VALID,18.8073,VALID,125,VALID,0.897656,
2014-04-09, 02:14:04,VALID,917.884,VALID,0,VALID,96.3752,VALID,0,VALID,18.7683,VALID,124,VALID,0.74375,
2014-04-09, 02:15:04,VALID,917.852,VALID,0,VALID,96.3524,VALID,0,VALID,18.7683,VALID,124,VALID,0.857422,
2014-04-09, 02:16:04,VALID,917.84,VALID,0,VALID,96.36,VALID,0,VALID,18.7683,VALID,119,VALID,0.739453,
2014-04-09, 02:17:04,VALID,917.846,VALID,0,VALID,96.36,VALID,0,VALID,18.7488,VALID,117,VALID,0.897656,
2014-04-09, 02:18:04,VALID,917.853,VALID,0,VALID,96.36,VALID,0,VALID,18.7488,VALID,107,VALID,0.912891,
2014-04-09, 02:19:04,VALID,917.824,VALID,0,VALID,96.36,VALID,0,VALID,18.7488,VALID,107,VALID,0.761719,
2014-04-09, 02:20:04,VALID,917.805,VALID,0,VALID,96.3676,VALID,0,VALID,18.7293,VALID,107,VALID,0.722266,
2014-04-09, 02:21:04,VALID,917.83,VALID,0,VALID,96.36,VALID,0,VALID,18.7503,VALID,107,VALID,0.823438,
2014-04-09, 02:22:04,VALID,917.812,VALID,0,VALID,96.3524,VALID,0,VALID,18.6903,VALID,107,VALID,0.877734,
2014-04-09, 02:23:04,VALID,917.808,VALID,0,VALID,96.3676,VALID,0,VALID,18.7503,VALID,107,VALID,0.936719,
2014-04-09, 02:24:04,VALID,917.774,VALID,0,VALID,96.3676,VALID,0,VALID,18.7308,VALID,107,VALID,1.11133,
2014-04-09, 02:25:04,VALID,917.773,VALID,0,VALID,96.3524,VALID,0,VALID,18.7293,VALID,107,VALID,1.14336,
2014-04-09, 02:26:04,VALID,917.743,VALID,0,VALID,96.3524,VALID,0,VALID,18.7683,VALID,107,VALID,1.14453,
2014-04-09, 02:27:04,VALID,917.739,VALID,0,VALID,96.3829,VALID,0,VALID,18.7488,VALID,107,VALID,1.13477,
2014-04-09, 02:28:04,VALID,917.719,VALID,0,VALID,96.3752,VALID,0,VALID,18.7683,VALID,107,VALID,1.02305,
2014-04-09, 02:29:04,VALID,917.722,VALID,0,VALID,96.36,VALID,0,VALID,18.7293,VALID,107,VALID,0.737891,
2014-04-09, 02:30:04,VALID,917.732,VALID,0,VALID,96.3829,VALID,0,VALID,18.7293,VALID,109,VALID,1.10117,
2014-04-09, 02:31:04,VALID,917.701,VALID,0,VALID,96.3676,VALID,0,VALID,18.7683,VALID,112,VALID,1.05625,
2014-04-09, 02:32:04,VALID,917.721,VALID,0,VALID,96.3981,VALID,0,VALID,18.7892,VALID,113,VALID,0.958984,
2014-04-09, 02:33:04,VALID,917.699,VALID,0,VALID,96.3905,VALID,0.107441,VALID,18.7279,VALID,113,VALID,0.950781,
2014-04-09, 02:34:04,VALID,917.723,VALID,0,VALID,96.3981,VALID,0,VALID,18.7098,VALID,113,VALID,0.976563,
2014-04-09, 02:35:04,VALID,917.695,VALID,0,VALID,96.3981,VALID,0,VALID,18.6889,VALID,113,VALID,1.05039,
2014-04-09, 02:36:04,VALID,917.698,VALID,0,VALID,96.3905,VALID,0,VALID,18.7084,VALID,126,VALID,0.820313,
2014-04-09, 02:37:04,VALID,917.709,VALID,0,VALID,96.3905,VALID,0,VALID,18.6694,VALID,118,VALID,0.648047,
2014-04-09, 02:38:04,VALID,917.721,VALID,0,VALID,96.3752,VALID,0,VALID,18.5734,VALID,118,VALID,0.636719,
2014-04-09, 02:39:04,VALID,917.686,VALID,0,VALID,96.3905,VALID,0,VALID,18.5734,VALID,118,VALID,0.752734,
2014-04-09, 02:40:04,VALID,917.713,VALID,0,VALID,96.3829,VALID,0,VALID,18.5734,VALID,123,VALID,0.958984,
2014-04-09, 02:41:04,VALID,917.71,VALID,0,VALID,96.3676,VALID,0,VALID,18.6124,VALID,124,VALID,0.834766,
2014-04-09, 02:42:04,VALID,917.695,VALID,0,VALID,96.3905,VALID,0,VALID,18.6124,VALID,123,VALID,0.764063,
2014-04-09, 02:43:04,VALID,917.677,VALID,0,VALID,96.3981,VALID,0,VALID,18.5149,VALID,122,VALID,0.460938,
2014-04-09, 02:44:04,VALID,917.674,VALID,0,VALID,96.3905,VALID,0,VALID,18.4174,VALID,122,VALID,0.5,
2014-04-09, 02:45:04,VALID,917.657,VALID,0,VALID,96.36,VALID,0,VALID,18.416,VALID,122,VALID,0.500391,
2014-04-09, 02:46:04,VALID,917.639,VALID,0,VALID,96.3905,VALID,0,VALID,18.5539,VALID,122,VALID,0.815234,
2014-04-09, 02:47:04,VALID,917.635,VALID,0,VALID,96.3981,VALID,0,VALID,18.5929,VALID,122,VALID,0.794141,
2014-04-09, 02:48:04,VALID,917.603,VALID,0,VALID,96.4133,VALID,0.107441,VALID,18.5914,VALID,122,VALID,0.664844,
2014-04-09, 02:49:04,VALID,917.597,VALID,0,VALID,96.4286,VALID,0,VALID,18.6124,VALID,122,VALID,0.741016,
2014-04-09, 02:50:04,VALID,917.589,VALID,0,VALID,96.421,VALID,0,VALID,18.6124,VALID,122,VALID,0.753516,
2014-04-09, 02:51:04,VALID,917.577,VALID,0,VALID,96.421,VALID,0,VALID,18.6124,VALID,122,VALID,0.84375,
2014-04-09, 02:52:04,VALID,917.555,VALID,0,VALID,96.4362,VALID,0,VALID,18.6109,VALID,123,VALID,1.09687,
2014-04-09, 02:53:04,VALID,917.527,VALID,0,VALID,96.4362,VALID,0,VALID,18.6708,VALID,126,VALID,1.15781,
2014-04-09, 02:54:04,VALID,917.542,VALID,0,VALID,96.4667,VALID,0,VALID,18.6513,VALID,126,VALID,0.753125,
2014-04-09, 02:55:04,VALID,917.501,VALID,0,VALID,96.4515,VALID,0,VALID,18.5914,VALID,126,VALID,0.716016,
2014-04-09, 02:56:04,VALID,917.481,VALID,0,VALID,96.4515,VALID,0,VALID,18.572,VALID,126,VALID,0.833594,
2014-04-09, 02:57:04,VALID,917.449,VALID,0,VALID,96.4133,VALID,0,VALID,18.5929,VALID,124,VALID,0.812891,
2014-04-09, 02:58:04,VALID,917.409,VALID,0,VALID,96.4133,VALID,0,VALID,18.6124,VALID,124,VALID,0.971484,
2014-04-09, 02:59:04,VALID,917.427,VALID,0,VALID,96.4362,VALID,0,VALID,18.6499,VALID,123,VALID,0.875781,
2014-04-09, 03:00:04,VALID,917.452,VALID,0,VALID,96.4438,VALID,0,VALID,18.7098,VALID,124,VALID,0.876562,
2014-04-09, 03:01:04,VALID,917.451,VALID,0,VALID,96.4133,VALID,0,VALID,18.7293,VALID,123,VALID,0.780859,
2014-04-09, 03:02:04,VALID,917.439,VALID,0,VALID,96.4438,VALID,0,VALID,18.7488,VALID,124,VALID,0.758594,
2014-04-09, 03:03:04,VALID,917.387,VALID,0,VALID,96.421,VALID,0,VALID,18.8073,VALID,124,VALID,0.828906,
2014-04-09, 03:04:04,VALID,917.395,VALID,0,VALID,96.4133,VALID,0,VALID,18.8268,VALID,124,VALID,0.866016,
2014-04-09, 03:05:04,VALID,917.345,VALID,0,VALID,96.3905,VALID,0,VALID,18.7864,VALID,124,VALID,0.657422,
2014-04-09, 03:06:04,VALID,917.326,VALID,0,VALID,96.3752,VALID,0,VALID,18.7878,VALID,124,VALID,0.541016,
2014-04-09, 03:07:04,VALID,917.284,VALID,0,VALID,96.3371,VALID,0,VALID,18.7474,VALID,124,VALID,0.576953,
2014-04-09, 03:08:04,VALID,917.288,VALID,0,VALID,96.3219,VALID,0,VALID,18.6903,VALID,124,VALID,0.665234,
2014-04-09, 03:09:04,VALID,917.277,VALID,0,VALID,96.2837,VALID,0,VALID,18.6903,VALID,124,VALID,0.782422,
2014-04-09, 03:10:04,VALID,917.288,VALID,0,VALID,96.2761,VALID,0,VALID,18.6708,VALID,124,VALID,0.755859,
2014-04-09, 03:11:04,VALID,917.316,VALID,0,VALID,96.2456,VALID,0,VALID,18.6109,VALID,125,VALID,0.597656,
2014-04-09, 03:12:04,VALID,917.298,VALID,0,VALID,96.2304,VALID,0,VALID,18.5943,VALID,125,VALID,0.537891,
2014-04-09, 03:13:04,VALID,917.319,VALID,0,VALID,96.1923,VALID,0,VALID,18.5734,VALID,125,VALID,0.825,
2014-04-09, 03:14:04,VALID,917.282,VALID,0,VALID,96.1846,VALID,0,VALID,18.5943,VALID,125,VALID,0.9875,
2014-04-09, 03:15:04,VALID,917.309,VALID,0,VALID,96.1541,VALID,0,VALID,18.5525,VALID,125,VALID,0.945703,
2014-04-09, 03:16:04,VALID,917.297,VALID,0,VALID,96.1313,VALID,0,VALID,18.5344,VALID,125,VALID,1.17969,
2014-04-09, 03:17:04,VALID,917.251,VALID,0,VALID,96.1236,VALID,0,VALID,18.5149,VALID,125,VALID,1.13984,
2014-04-09, 03:18:04,VALID,917.245,VALID,0,VALID,96.1008,VALID,0,VALID,18.4968,VALID,119,VALID,0.955078,
2014-04-09, 03:19:04,VALID,917.226,VALID,0,VALID,96.055,VALID,0,VALID,18.4759,VALID,119,VALID,1.01094,
2014-04-09, 03:20:04,VALID,917.232,VALID,0,VALID,96.0627,VALID,0,VALID,18.4146,VALID,123,VALID,0.976953,
2014-04-09, 03:21:04,VALID,917.246,VALID,0,VALID,96.0322,VALID,0,VALID,18.4564,VALID,132,VALID,0.998047,
2014-04-09, 03:22:04,VALID,917.221,VALID,0,VALID,96.0474,VALID,0,VALID,18.4369,VALID,135,VALID,0.847266,
2014-04-09, 03:23:04,VALID,917.192,VALID,0,VALID,96.0703,VALID,0,VALID,18.3965,VALID,136,VALID,0.963281,
2014-04-09, 03:24:04,VALID,917.193,VALID,0,VALID,96.0398,VALID,0,VALID,18.4174,VALID,136,VALID,0.727734,
2014-04-09, 03:25:04,VALID,917.186,VALID,0,VALID,96.0627,VALID,0,VALID,18.4383,VALID,137,VALID,1.00273,
2014-04-09, 03:26:04,VALID,917.209,VALID,0,VALID,96.0855,VALID,0,VALID,18.377,VALID,137,VALID,0.933594,
2014-04-09, 03:27:04,VALID,917.215,VALID,0,VALID,96.0703,VALID,0.107441,VALID,18.3575,VALID,136,VALID,0.533203,
2014-04-09, 03:28:04,VALID,917.182,VALID,0,VALID,96.0779,VALID,0,VALID,18.3589,VALID,137,VALID,0.832812,
2014-04-09, 03:29:04,VALID,917.165,VALID,0,VALID,96.0932,VALID,0,VALID,18.3589,VALID,140,VALID,1.13125,
2014-04-09, 03:30:04,VALID,917.17,VALID,0,VALID,96.0932,VALID,0,VALID,18.3798,VALID,143,VALID,0.951172,
2014-04-09, 03:31:04,VALID,917.144,VALID,0,VALID,96.1084,VALID,0,VALID,18.3394,VALID,143,VALID,1.03789,
2014-04-09, 03:32:04,VALID,917.139,VALID,0,VALID,96.1389,VALID,0,VALID,18.3199,VALID,138,VALID,0.773438,
2014-04-09, 03:33:04,VALID,917.127,VALID,0,VALID,96.116,VALID,0,VALID,18.3213,VALID,141,VALID,1.11523,
2014-04-09, 03:34:04,VALID,917.133,VALID,0,VALID,96.1465,VALID,0,VALID,18.3213,VALID,144,VALID,1.21445,
2014-04-09, 03:35:04,VALID,917.096,VALID,0,VALID,96.1846,VALID,0.107441,VALID,18.2796,VALID,147,VALID,1.0918,
2014-04-09, 03:36:04,VALID,917.087,VALID,0,VALID,96.1694,VALID,0.107441,VALID,18.2601,VALID,147,VALID,0.571094,
2014-04-09, 03:37:04,VALID,917.075,VALID,0,VALID,96.1694,VALID,0,VALID,18.203,VALID,147,VALID,0.538672,
2014-04-09, 03:38:04,VALID,917.088,VALID,0,VALID,96.1541,VALID,0,VALID,18.164,VALID,147,VALID,0.523047,
2014-04-09, 03:39:04,VALID,917.063,VALID,0,VALID,96.1541,VALID,0.107441,VALID,18.1835,VALID,147,VALID,0.580859,
2014-04-09, 03:40:04,VALID,917.057,VALID,0,VALID,96.1999,VALID,0,VALID,18.203,VALID,147,VALID,0.571875,
2014-04-09, 03:41:04,VALID,917.037,VALID,0,VALID,96.2151,VALID,0,VALID,18.2225,VALID,147,VALID,0.537891,